{"data":{"norad_id":39159,"intl_designator":"2013-021A","name":"PROBA-V","alt_names":[],"object_type":"PAYLOAD","status":"ACTIVE","operator":null,"country":"ESA","launch_date":"2013-05-07","launch_site_code":"FRGUI","launch_vehicle":null,"mission":null,"orbit_class":"UNKNOWN","rcs_meters":0.3352,"size_class":null,"mass_kg":null,"dimensions":null,"purposes":["tech_demo"],"wikipedia_slug":null,"has_3d_model":false,"image_url":null,"decayed_at":null,"tle_current":{"epoch":"2026-05-25T04:57:02.547072Z","epoch_age_seconds":56530,"freshness":"FRESH","line1":"1 39159U 13021A   26145.20627948  .00000072  00000+0  49813-4 0  9997","line2":"2 39159  98.3574 124.9494 0003904 182.9134 177.2023 14.23591514677841","mean_motion":14.23591514,"eccentricity":0.0003904,"inclination_deg":98.3574,"raan_deg":124.9494,"arg_perigee_deg":182.9134,"mean_anomaly_deg":177.2023,"bstar":4.9813e-5,"rev_number":67784,"period_min":101.15261195635,"perigee_km":810.42461114175,"apogee_km":816.03963215193,"semimajor_km":7191.3691216468,"source":"CELESTRAK","updated_at":"2026-05-25T13:38:24.895602Z"}}}